This is the latest recevied weather packets stored in our database for station/object N7TUG-8. If no packets are shown the sender has not sent any weather packets the latest 10 day(s).
| Time | Temp. | Humidity | Pressure | Rain* | Wind** | Luminosity | Snow |
|---|---|---|---|---|---|---|---|
| 1777777862 | 19.44° C | 62% | 1012.4 hPa | 0 mm | 1.79 m/s, 313° | - | - |
| 1777777106 | 20° C | 61% | 1012.3 hPa | 0 mm | 1.79 m/s, 308° | - | - |
| 1777776161 | 20° C | 61% | 1012.3 hPa | 0 mm | 1.79 m/s, 305° | - | - |
| 1777775552 | 20.56° C | 61% | 1012.3 hPa | 0 mm | 2.68 m/s, 298° | - | - |
| 1777775231 | 20.56° C | 60% | 1012.3 hPa | 0 mm | 1.79 m/s, 302° | - | - |
| 1777774346 | 21.11° C | 60% | 1012.3 hPa | 0 mm | 1.79 m/s, 304° | - | - |
| 1777773877 | 21.11° C | 61% | 1012.3 hPa | 0 mm | 2.24 m/s, 306° | - | - |
| 1777773396 | 21.11° C | 61% | 1012.3 hPa | 0 mm | 2.68 m/s, 301° | - | - |
| 1777773152 | 21.11° C | 60% | 1012.3 hPa | 0 mm | 2.24 m/s, 306° | - | - |
| 1777772571 | 21.11° C | 61% | 1012.4 hPa | 0 mm | 3.13 m/s, 316° | - | - |
| 1777772257 | 21.11° C | 60% | 1012.3 hPa | 0 mm | 2.68 m/s, 316° | - | - |
| 1777771796 | 21.11° C | 60% | 1012.4 hPa | 0 mm | 3.58 m/s, 317° | - | - |
| 1777770996 | 21.11° C | 59% | 1012.3 hPa | 0 mm | 3.13 m/s, 322° | - | - |
| 1777770672 | 21.11° C | 59% | 1012.3 hPa | 0 mm | 3.58 m/s, 320° | - | - |
| 1777770121 | 21.11° C | 58% | 1012.4 hPa | 0 mm | 3.13 m/s, 322° | - | - |
| 1777769902 | 21.11° C | 58% | 1012.4 hPa | 0 mm | 3.58 m/s, 321° | - | - |
| 1777769145 | 21.11° C | 58% | 1012.6 hPa | 0 mm | 3.13 m/s, 331° | - | - |
| 1777768342 | 21.11° C | 59% | 1012.6 hPa | 0 mm | 3.13 m/s, 327° | - | - |
| 1777768241 | 21.11° C | 59% | 1012.6 hPa | 0 mm | 3.13 m/s, 327° | - | - |
| 1777767492 | 21.11° C | 59% | 1012.6 hPa | 0 mm | 2.68 m/s, 319° | - | - |
| 1777767421 | 21.11° C | 59% | 1012.6 hPa | 0 mm | 2.68 m/s, 319° | - | - |
| 1777766591 | 21.11° C | 58% | 1012.7 hPa | 0 mm | 2.68 m/s, 303° | - | - |
| 1777765696 | 21.11° C | 61% | 1013 hPa | 0 mm | 2.24 m/s, 309° | - | - |
| 1777765092 | 20.56° C | 62% | 1013.1 hPa | 0 mm | 2.68 m/s, 314° | - | - |
| 1777764891 | 20.56° C | 63% | 1013.3 hPa | 0 mm | 2.68 m/s, 313° | - | - |
* Rain latest hour (hover to see other rain measurements)
** Current wind speed in m/s (hover to see current wind gust speed)